| time (UTC) | temp F | wind direction | speed knots | gust knots | rain 1hr in | rain 24hr in | rain mn in | humidity % | barometer mb |
| 20260504050104 | 46 | 0 | 0.0 | 1.7 | 0.00 | 0.00 | 0.00 | 69 | 1017.0 |
| 20260504044559 | 46 | 0 | 0.0 | 1.7 | 0.00 | 0.00 | 0.00 | 70 | 1016.9 |
| 20260504043057 | 45 | 0 | 0.0 | 0.0 | 0.00 | 0.00 | 0.00 | 70 | 1016.8 |
| 20260504041557 | 46 | 314 | 0.0 | 0.0 | 0.00 | 0.00 | 0.00 | 68 | 1016.7 |
| 20260504040058 | 46 | 0 | 0.0 | 0.0 | 0.00 | 0.00 | 0.00 | 70 | 1016.7 |
| 20260504034557 | 46 | 314 | 0.0 | 0.0 | 0.00 | 0.00 | 0.00 | 69 | 1016.6 |
| 20260504033050 | 46 | 0 | 0.0 | 0.0 | 0.00 | 0.00 | 0.00 | 68 | 1016.5 |
| 20260504031552 | 46 | 0 | 0.0 | 0.9 | 0.00 | 0.00 | 0.00 | 68 | 1016.4 |
| 20260504030054 | 47 | 314 | 0.0 | 0.9 | 0.00 | 0.00 | 0.00 | 65 | 1016.3 |
| 20260504024604 | 46 | 350 | 0.9 | 1.7 | 0.00 | 0.00 | 0.00 | 63 | 1016.2 |
| 20260504023053 | 46 | 0 | 0.0 | 0.9 | 0.00 | 0.00 | 0.00 | 62 | 1016.2 |
| 20260504021557 | 47 | 0 | 0.0 | 0.9 | 0.00 | 0.00 | 0.00 | 59 | 1016.5 |
| 20260504020054 | 48 | 0 | 0.0 | 0.0 | 0.00 | 0.00 | 0.00 | 60 | 1016.2 |
| 20260504014558 | 48 | 0 | 0.0 | 0.0 | 0.00 | 0.00 | 0.00 | 59 | 1016.0 |
| 20260504013054 | 49 | 0 | 0.0 | 0.0 | 0.00 | 0.00 | 0.00 | 56 | 1015.9 |
| 20260504011551 | 50 | 0 | 0.0 | 0.0 | 0.00 | 0.00 | 0.00 | 53 | 1015.8 |
| 20260504004555 | 51 | 155 | 0.0 | 0.9 | 0.00 | 0.00 | 0.00 | 50 | 1015.3 |
| 20260504003058 | 52 | 164 | 0.0 | 0.9 | 0.00 | 0.00 | 0.00 | 48 | 1015.1 |
| 20260504001554 | 54 | 164 | 0.0 | 0.9 | 0.00 | 0.00 | 0.00 | 45 | 1015.0 |
| 20260504000137 | 56 | 0 | 0.0 | 0.9 | 0.00 | 0.00 | 0.00 | 39 | 1015.0 |
| 20260503234557 | 57 | 101 | 0.0 | 0.9 | 0.00 | 0.00 | 0.00 | 38 | 1015.1 |
| 20260503233053 | 60 | 0 | 0.0 | 6.1 | 0.00 | 0.00 | 0.00 | 39 | 1015.1 |
| 20260503231553 | 61 | 0 | 0.9 | 2.6 | 0.00 | 0.00 | 0.00 | 29 | 1015.1 |
| 20260503230057 | 63 | 138 | 0.0 | 4.3 | 0.00 | 0.00 | 0.00 | 29 | 1015.1 |
| 20260503224553 | 64 | 226 | 0.0 | 3.5 | 0.00 | 0.00 | 0.00 | 26 | 1015.1 |
| 20260503223057 | 63 | 141 | 1.7 | 7.8 | 0.00 | 0.00 | 0.00 | 24 | 1015.1 |
| 20260503221558 | 64 | 71 | 2.6 | 9.6 | 0.00 | 0.00 | 0.00 | 26 | 1015.2 |
| 20260503220056 | 63 | 75 | 3.5 | 8.7 | 0.00 | 0.00 | 0.00 | 25 | 1015.1 |
| 20260503214554 | 64 | 45 | 2.6 | 12.2 | 0.00 | 0.00 | 0.00 | 27 | 1015.2 |
| 20260503213055 | 63 | 334 | 2.6 | 7.0 | 0.00 | 0.00 | 0.00 | 25 | 1015.2 |
| 20260503211618 | 64 | 106 | 2.6 | 8.7 | 0.00 | 0.00 | 0.00 | 27 | 1015.2 |
| 20260503210058 | 63 | 58 | 4.3 | 13.9 | 0.00 | 0.00 | 0.00 | 25 | 1015.3 |
| 20260503204553 | 64 | 146 | 1.7 | 7.8 | 0.00 | 0.00 | 0.00 | 24 | 1015.3 |
| 20260503203106 | 64 | 52 | 0.0 | 3.5 | 0.00 | 0.00 | 0.00 | 28 | 1015.7 |
| 20260503201555 | 63 | 176 | 3.5 | 7.8 | 0.00 | 0.00 | 0.00 | 26 | 1015.8 |
| 20260503200057 | 62 | 116 | 2.6 | 8.7 | 0.00 | 0.00 | 0.00 | 25 | 1016.1 |
| 20260503194557 | 61 | 84 | 1.7 | 6.1 | 0.00 | 0.00 | 0.00 | 26 | 1016.5 |
| 20260503193053 | 61 | 162 | 1.7 | 8.7 | 0.00 | 0.00 | 0.00 | 25 | 1016.9 |
| 20260503191553 | 60 | 303 | 2.6 | 12.2 | 0.00 | 0.00 | 0.00 | 25 | 1017.3 |
| 20260503190051 | 59 | 186 | 4.3 | 9.6 | 0.00 | 0.00 | 0.00 | 28 | 1017.6 |
| 20260503184551 | 59 | 214 | 2.6 | 10.4 | 0.00 | 0.00 | 0.00 | 32 | 1017.7 |
| 20260503183054 | 58 | 173 | 1.7 | 11.3 | 0.00 | 0.00 | 0.00 | 28 | 1017.8 |
| 20260503181603 | 58 | 90 | 2.6 | 11.3 | 0.00 | 0.00 | 0.00 | 28 | 1018.1 |
| 20260503180053 | 58 | 343 | 1.7 | 7.0 | 0.00 | 0.00 | 0.00 | 30 | 1018.2 |
| 20260503174553 | 57 | 161 | 0.9 | 12.2 | 0.00 | 0.00 | 0.00 | 33 | 1018.2 |
| 20260503173101 | 57 | 201 | 1.7 | 7.0 | 0.00 | 0.00 | 0.00 | 31 | 1018.5 |
| 20260503171553 | 56 | 75 | 2.6 | 7.0 | 0.00 | 0.00 | 0.00 | 30 | 1018.7 |
| 20260503170105 | 54 | 23 | 3.5 | 10.4 | 0.00 | 0.00 | 0.00 | 31 | 1018.8 |
| 20260503081557 | 38 | 245 | 0.0 | 1.7 | 0.00 | 0.00 | 0.00 | 80 | 1017.3 |